User: anonymous   Login
Location: Unspecified
(0.0000°N, 0.0000°E)
Time: 00:07:27
(UTC+00:00)
Language:

SWAS - Orbit

View from above orbital plane
View from above orbital plane
View from above satellite
View from above satellite

Ground track
Ground track

The orbit data is extracted from the following two-line orbital elements,

1 25560U 98071A   18112.61382731 +.00000235 +00000-0 +30755-4 0  9991
2 25560 069.8995 202.9023 0005027 081.2467 278.9258 14.93572722051522
Epoch (UTC): 22 April 2018 14:43:54
Eccentricity: 0.0005027
inclination: 69.8995°
perigee height: 583 km
apogee height: 590 km
right ascension of ascending node: 202.9023°
argument of perigee: 81.2467°
revolutions per day: 14.93572722
mean anomaly at epoch: 278.9258°
orbit number at epoch: 5152

The dashed part of the orbit path shows where the satellite is in the earth's shadow,  

DLR